Find Starlink 31834

NORAD ID: 59721 Int'l Des: 2024-088 Owner: SPXS Country: US Constellation: starlink operational
LEOCIRCULAR

現在のビュー

3D地球を読み込み中...

About Starlink 31834

Starlink 31834 (NORAD 59721) is a starlink constellation satellite (v2 mini) launched May 10, 2024 by SPXS of US. It operates in LEO, CIRCULAR orbit with a mass of 730.00 kg.

Starlink 31834について

説明を読み込み中...

次回通過

Passes for default location (London). Set your location on the main map for personalized predictions.

高度履歴

Loading altitude history...

軌道要素

1 59721U 24088P 26170.98034371 .00001651 00000-0 64929-4 0 9994
2 59721 53.1602 24.7576 0001308 92.8089 267.3063 15.31712433119527
Epoch: Jun 19, 2026 • Age: 33 hours

現在のステータス

高度 474.3 km
速度 7.63 km/s
衛星直下点 43.39°N, 23.5°E
打ち上げ日 May 10, 2024
運用期間 2.1 years
タイプ internet

技術仕様

分類 Payload
質量 730.00 kg
乾燥質量 700.00 kg
総質量 730.00 kg
長さ 0.30 m
直径 4.10 m
スパン 29.00 m
形状 Box + pan
製造者 SPXS
バスタイプ Starlink V2M
フェーズステータス In Orbit
所有者/国 SPXS/US

Most Searched